Location: Oberwangen
(47.4286°N, 8.9679°E)
Time: 09:22:17
(UTC+00:00)

CARTOSAT-1 - Pass Details

Date: 20 June 2021
Orbit: 616 x 619 km, 97.8° (Epoch: 04 August)

Event Time Altitude Azimuth Distance (km) Brightness Sun altitude
Exits shadow 20:40:16 11° 165° (SSE) 1,901 5.5 -9.9°
Maximum altitude 20:44:23 89° 92° (E) 626 3.6 -10.4°
Drops below altitude 10° 20:48:45 10° 347° (NNW) 1,996 7.4 -10.8°
Sets 20:50:57 0° 347° (NNW) 2,907 8.4 -11.0°
